Weather History for KCMH - November, 2011

Change the Weather History Date:

Sunday, November 20, 2011

  Actual Average Record
Temperature  
Mean Temperature 55 °F 43 °F  
Max Temperature 61 °F 51 °F 74 °F (1942)
Min Temperature 48 °F 35 °F 11 °F (1914)
Degree Days  
Heating Degree Days 10 22  
Month to date heating degree days 306 374  
Since 1 July heating degree days 698 768  
Cooling Degree Days 0 0  
Month to date cooling degree days 0 0  
Year to date cooling degree days 1262 1024  
Growing Degree Days 4 (Base 50)    
Moisture  
Dew Point 52 °F    
Average Humidity 80    
Maximum Humidity 100    
Minimum Humidity 60    
Precipitation  
Precipitation 0.35 in 0.12 in 1.48 in (1906)
Month to date precipitation 2.16 2.11  
Year to date precipitation 46.91 35.25  
Snow  
Snow 0.00 in 0.00 in 0.90 in (1887)
Month to date snowfall 0.0 0.4  
Since 1 July snowfall 0.0 0.6  
Since 1 September snowfall 0.0 0.6  
Snow Depth 0.00 in    
Sea Level Pressure  
Sea Level Pressure 30.15 in    
Wind  
Wind Speed 10 mph (WSW)    
Max Wind Speed 25 mph    
Max Gust Speed 35 mph    
Visibility 6 miles    
Events Rain    
T = Trace of Precipitation, MM = Missing Value Source: NWS Daily Summary

Daily Weather History Graph

Daily Weather History Graph

Search for Another Location

Airport or City:

Trip Planner

Search our weather history database for the weather conditions in past years. The results will help you decide how hot, cold, wet, or windy it might be!

Date:

Astronomy

Nov. 20, 2011 Rise Set
Actual Time 7:22 AM EST 5:11 PM EST
Civil Twilight 6:52 AM EST 5:41 PM EST
Nautical Twilight 6:19 AM EST 6:14 PM EST
Astronomical Twilight 5:47 AM EST 6:46 PM EST
Moon 1:49 AM EST (11/20) 2:00 PM EST (11/20)
Length of Visible Light 10h 48m
Length of Day
9h 49m
Waning Crescent, 27% of the Moon is Illuminated
Nov 20
Waning Crescent
Nov 25
New
Dec 2
First Quarter
Dec 10
Full
Dec 17
Last Quarter

Hourly Weather History & Observations

Time (EST) Temp. Dew Point Humidity Pressure Visibility Wind Dir Wind Speed Gust Speed Precip Events Conditions
12:51 AM 60.1 °F 46.9 °F 62% 30.04 in 10.0 mi SSW 17.3 mph 27.6 mph N/A   Overcast
1:51 AM 59.0 °F 46.9 °F 64% 30.05 in 10.0 mi SSW 16.1 mph 25.3 mph N/A   Overcast
2:51 AM 59.0 °F 48.0 °F 67% 30.07 in 10.0 mi SSW 15.0 mph - N/A   Mostly Cloudy
3:51 AM 57.9 °F 48.9 °F 72% 30.06 in 10.0 mi SSW 15.0 mph 19.6 mph N/A   Mostly Cloudy
4:51 AM 57.9 °F 48.9 °F 72% 30.08 in 10.0 mi SSW 11.5 mph - N/A   Overcast
5:51 AM 57.9 °F 51.1 °F 78% 30.09 in 10.0 mi SSW 11.5 mph - N/A   Overcast
6:51 AM 57.9 °F 52.0 °F 81% 30.11 in 10.0 mi SSW 8.1 mph - N/A   Overcast
7:51 AM 57.0 °F 52.0 °F 83% 30.13 in 10.0 mi SSW 11.5 mph - N/A   Overcast
8:51 AM 57.0 °F 53.1 °F 87% 30.16 in 7.0 mi SSW 12.7 mph - 0.00 in   Light Drizzle
9:51 AM 57.9 °F 53.1 °F 84% 30.17 in 10.0 mi SSW 9.2 mph - 0.00 in   Overcast
9:58 AM 57.2 °F 53.6 °F 88% 30.17 in 10.0 mi SSW 10.4 mph - N/A   Overcast
10:51 AM 59.0 °F 54.0 °F 83% 30.18 in 10.0 mi SW 10.4 mph - N/A   Overcast
11:29 AM 59.0 °F 53.6 °F 82% 30.18 in 10.0 mi SW 11.5 mph - N/A   Overcast
11:38 AM 59.0 °F 53.6 °F 82% 30.18 in 10.0 mi SW 10.4 mph - N/A   Overcast
11:51 AM 59.0 °F 54.0 °F 83% 30.17 in 10.0 mi SW 11.5 mph - N/A   Overcast
12:51 PM 60.1 °F 55.0 °F 83% 30.14 in 10.0 mi WSW 9.2 mph - N/A   Overcast
1:15 PM 60.8 °F 55.4 °F 82% 30.14 in 10.0 mi SW 9.2 mph - N/A Rain Light Rain
1:37 PM 60.8 °F 55.4 °F 82% 30.13 in 10.0 mi WSW 5.8 mph - 0.00 in Rain Light Rain
1:51 PM 60.1 °F 55.9 °F 86% 30.13 in 10.0 mi WSW 6.9 mph - 0.00 in Rain Light Rain
2:27 PM 59.0 °F 55.4 °F 88% 30.13 in 2.5 mi WSW 5.8 mph - 0.03 in Rain Rain
2:43 PM 57.2 °F 57.2 °F 100% 30.13 in 3.0 mi WSW 4.6 mph - 0.05 in Rain Light Rain
2:51 PM 57.9 °F 57.0 °F 97% 30.13 in 3.0 mi West 4.6 mph - 0.06 in Rain Rain
2:58 PM 57.2 °F 57.2 °F 100% 30.13 in 2.5 mi West 4.6 mph - 0.02 in Rain Light Rain
3:07 PM 57.2 °F 57.2 °F 100% 30.13 in 3.0 mi West 3.5 mph - 0.02 in Rain Light Rain
3:51 PM 57.9 °F 57.0 °F 97% 30.13 in 3.0 mi WSW 4.6 mph - 0.03 in Rain Light Rain
4:08 PM 57.2 °F 57.2 °F 100% 30.13 in 3.0 mi SSW 4.6 mph - 0.02 in Rain Light Rain
4:42 PM 57.2 °F 57.2 °F 100% 30.14 in 3.0 mi SSW 4.6 mph - 0.04 in Rain Light Rain
4:51 PM 57.9 °F 57.0 °F 97% 30.14 in 3.0 mi South 3.5 mph - 0.06 in Rain Rain
5:06 PM 57.2 °F 57.2 °F 100% 30.14 in 2.0 mi South 6.9 mph - 0.03 in Rain Rain
5:17 PM 57.2 °F 57.2 °F 100% 30.15 in 3.0 mi SSW 4.6 mph - 0.05 in Rain Light Rain
5:51 PM 54.0 °F 52.0 °F 93% 30.16 in 3.0 mi NNW 10.4 mph 17.3 mph 0.10 in Rain Rain
6:08 PM 53.6 °F 51.8 °F 94% 30.17 in 3.0 mi North 11.5 mph - 0.01 in Rain Light Rain
6:51 PM 52.0 °F 50.0 °F 93% 30.17 in 3.0 mi North 9.2 mph - 0.01 in Rain Light Rain
7:05 PM 51.8 °F 50.0 °F 94% 30.18 in 3.0 mi North 11.5 mph - N/A Rain Light Rain
7:51 PM 50.0 °F 48.9 °F 96% 30.18 in 3.0 mi North 10.4 mph - 0.05 in Rain Light Rain
8:04 PM 50.0 °F 48.2 °F 94% 30.18 in 3.0 mi North 6.9 mph - 0.00 in Rain Light Rain
8:42 PM 48.2 °F 48.2 °F 100% 30.20 in 3.0 mi North 8.1 mph - 0.01 in Rain Light Rain
8:51 PM 48.9 °F 48.9 °F 100% 30.20 in 3.0 mi North 9.2 mph - 0.02 in Rain Light Rain
9:41 PM 50.0 °F 48.2 °F 94% 30.20 in 3.0 mi NNE 6.9 mph - 0.01 in   Light Drizzle
9:51 PM 48.9 °F 48.0 °F 97% 30.20 in 4.0 mi NNE 8.1 mph - 0.02 in Rain Light Rain
10:26 PM 48.2 °F 46.4 °F 93% 30.20 in 7.0 mi NNE 6.9 mph - 0.00 in   Overcast
10:51 PM 48.2 °F 46.4 °F 93% 30.21 in 7.0 mi NNE 5.8 mph - N/A   Overcast
11:21 PM 48.2 °F 46.4 °F 93% 30.21 in 7.0 mi NE 4.6 mph - N/A   Overcast
11:51 PM 48.0 °F 45.0 °F 89% 30.22 in 7.0 mi NNE 8.1 mph - N/A   Overcast